* Astronomy

Members Login
Username 
 
Password 
    Remember Me  
Post Info TOPIC: Asteroid 2010 JH124


L

Posts: 131433
Date:
Asteroid 2010 JH124
Permalink  
 


Orbital elements:
2010 JH124
Epoch 2011 Aug. 27.0 TT = JDT 2455800.5                 MPC
M   0.24884              (2000.0)            P               Q
n   0.00167034     Peri.  117.68766     -0.03452309     +0.82811716
a  70.3502254      Node   135.82801     -0.92721482     -0.23544292
e   0.9628280      Incl.   53.41049     +0.37293544     -0.50871270
P 590              H   14.6           G   0.15           U   0

MPEC 2011 - Q15



__________________


L

Posts: 131433
Date:
Permalink  
 

Orbital elements:
2010 JH124
Epoch 2010 July 23.0 TT = JDT 2455400.5 MPC
M 357.87311 (2000.0) P Q
n 0.00810925 Peri. 117.29187 -0.02983623 +0.82972907
a 24.5366687 Node 136.35956 -0.92377552 -0.23586565
e 0.8909392 Incl. 53.86477 +0.38177034 -0.50588247
P 121.54 H 14.7 G 0.15 U 7

MPEC 2010 - K24


Asteroid 2010 JH124 was discovered by the WISE satellite on 12 May, 2010.

__________________
Page 1 of 1  sorted by
Quick Reply

Please log in to post quick replies.



Create your own FREE Forum
Report Abuse
Powered by ActiveBoard